TimeCST,TemperatureF,Dew PointF,Humidity,Sea Level PressureIn,VisibilityMPH,Wind Direction,Wind SpeedMPH,Gust SpeedMPH,PrecipitationIn,Events,Conditions,WindDirDegrees,DateUTC
12:15 AM,24.8,12.2,59,30.12,10.0,West,6.9,-,N/A,,Clear,280,2014-02-27 06:15:00
12:35 AM,26.6,8.6,47,30.12,10.0,WNW,4.6,-,N/A,,Clear,290,2014-02-27 06:35:00
12:55 AM,26.6,5.0,40,30.12,10.0,West,4.6,-,N/A,,Clear,270,2014-02-27 06:55:00
1:15 AM,24.8,6.8,46,30.11,10.0,WSW,5.8,-,N/A,,Clear,240,2014-02-27 07:15:00
1:35 AM,23.0,6.8,50,30.11,10.0,SW,3.5,-,N/A,,Clear,220,2014-02-27 07:35:00
1:55 AM,21.2,6.8,54,30.11,10.0,Calm,Calm,-,N/A,,Clear,0,2014-02-27 07:55:00
2:15 AM,19.4,8.6,63,30.11,10.0,Calm,Calm,-,N/A,,Clear,0,2014-02-27 08:15:00
2:35 AM,19.4,6.8,58,30.10,10.0,Calm,Calm,-,N/A,,Clear,0,2014-02-27 08:35:00
2:55 AM,17.6,8.6,68,30.09,10.0,Calm,Calm,-,N/A,,Clear,0,2014-02-27 08:55:00
3:15 AM,17.6,8.6,68,30.09,10.0,Calm,Calm,-,N/A,,Clear,0,2014-02-27 09:15:00
3:35 AM,17.6,8.6,68,30.09,10.0,Calm,Calm,-,N/A,,Clear,0,2014-02-27 09:35:00
3:55 AM,17.6,8.6,68,30.08,10.0,Calm,Calm,-,N/A,,Clear,0,2014-02-27 09:55:00
4:15 AM,17.6,8.6,68,30.08,10.0,Calm,Calm,-,N/A,,Clear,0,2014-02-27 10:15:00
4:35 AM,17.6,10.4,73,30.09,10.0,Calm,Calm,-,N/A,,Clear,0,2014-02-27 10:35:00
4:55 AM,19.4,10.4,68,30.09,10.0,Calm,Calm,-,N/A,,Clear,0,2014-02-27 10:55:00
5:15 AM,17.6,10.4,73,30.09,10.0,Calm,Calm,-,N/A,,Clear,0,2014-02-27 11:15:00
5:35 AM,19.4,12.2,74,30.09,10.0,Calm,Calm,-,N/A,,Clear,0,2014-02-27 11:35:00
5:55 AM,19.4,10.4,68,30.09,10.0,Calm,Calm,-,N/A,,Clear,0,2014-02-27 11:55:00
6:15 AM,17.6,12.2,79,30.09,10.0,Calm,Calm,-,N/A,,Clear,0,2014-02-27 12:15:00
6:35 AM,19.4,10.4,68,30.09,10.0,Calm,Calm,-,N/A,,Clear,0,2014-02-27 12:35:00
6:55 AM,19.4,10.4,68,30.09,10.0,Calm,Calm,-,N/A,,Clear,0,2014-02-27 12:55:00
7:15 AM,19.4,12.2,74,30.10,10.0,Calm,Calm,-,N/A,,Clear,0,2014-02-27 13:15:00
7:35 AM,23.0,14.0,68,30.10,10.0,Calm,Calm,-,N/A,,Clear,0,2014-02-27 13:35:00
7:55 AM,28.4,17.6,64,30.10,10.0,Calm,Calm,-,N/A,,Clear,0,2014-02-27 13:55:00
8:15 AM,32.0,14.0,48,30.11,10.0,Calm,Calm,-,N/A,,Clear,0,2014-02-27 14:15:00
8:35 AM,32.0,14.0,48,30.11,10.0,Calm,Calm,-,N/A,,Clear,0,2014-02-27 14:35:00
8:55 AM,35.6,14.0,41,30.11,10.0,West,3.5,-,N/A,,Clear,280,2014-02-27 14:55:00
9:15 AM,37.4,14.0,38,30.11,10.0,Calm,Calm,-,N/A,,Clear,0,2014-02-27 15:15:00
9:35 AM,39.2,14.0,36,30.11,3.0,Calm,Calm,-,N/A,,Haze,0,2014-02-27 15:35:00
9:55 AM,41.0,14.0,33,30.11,4.0,Calm,Calm,-,N/A,,Haze,0,2014-02-27 15:55:00
10:15 AM,42.8,12.2,29,30.11,7.0,Calm,Calm,-,N/A,,Clear,0,2014-02-27 16:15:00
10:35 AM,44.6,14.0,29,30.10,10.0,Calm,Calm,-,N/A,,Clear,0,2014-02-27 16:35:00
10:55 AM,44.6,14.0,29,30.10,10.0,ESE,3.5,-,N/A,,Clear,120,2014-02-27 16:55:00
11:15 AM,46.4,14.0,27,30.09,10.0,East,3.5,-,N/A,,Clear,80,2014-02-27 17:15:00
11:35 AM,46.4,14.0,27,30.09,10.0,ESE,3.5,-,N/A,,Clear,110,2014-02-27 17:35:00
11:55 AM,48.2,14.0,25,30.08,10.0,East,4.6,-,N/A,,Clear,80,2014-02-27 17:55:00
12:15 PM,48.2,12.2,24,30.06,10.0,Calm,Calm,-,N/A,,Clear,0,2014-02-27 18:15:00
12:35 PM,50.0,14.0,24,30.05,10.0,ENE,3.5,-,N/A,,Clear,70,2014-02-27 18:35:00
12:55 PM,51.8,14.0,22,30.04,10.0,NE,6.9,-,N/A,,Clear,50,2014-02-27 18:55:00
1:15 PM,51.8,12.2,21,30.02,10.0,WNW,3.5,-,N/A,,Clear,290,2014-02-27 19:15:00
1:35 PM,53.6,14.0,21,30.01,10.0,ENE,4.6,-,N/A,,Clear,60,2014-02-27 19:35:00
1:55 PM,55.4,10.4,17,30.01,10.0,SE,4.6,-,N/A,,Clear,140,2014-02-27 19:55:00
2:15 PM,55.4,6.8,14,29.99,10.0,WNW,3.5,-,N/A,,Clear,300,2014-02-27 20:15:00
2:35 PM,55.4,6.8,14,29.99,10.0,Calm,Calm,-,N/A,,Clear,0,2014-02-27 20:35:00
2:55 PM,55.4,8.6,15,29.97,10.0,South,4.6,-,N/A,,Clear,170,2014-02-27 20:55:00
3:15 PM,55.4,6.8,14,29.96,10.0,Calm,Calm,-,N/A,,Clear,0,2014-02-27 21:15:00
3:35 PM,57.2,8.6,14,29.96,10.0,South,6.9,-,N/A,,Clear,170,2014-02-27 21:35:00
3:55 PM,55.4,10.4,17,29.96,10.0,South,3.5,-,N/A,,Clear,180,2014-02-27 21:55:00
4:15 PM,55.4,10.4,17,29.95,10.0,South,4.6,-,N/A,,Clear,190,2014-02-27 22:15:00
4:35 PM,55.4,10.4,17,29.95,10.0,SSW,4.6,-,N/A,,Clear,200,2014-02-27 22:35:00
4:55 PM,55.4,12.2,18,29.95,10.0,SSW,4.6,-,N/A,,Clear,200,2014-02-27 22:55:00
5:15 PM,53.6,12.2,19,29.94,10.0,South,5.8,-,N/A,,Clear,190,2014-02-27 23:15:00
5:35 PM,51.8,14.0,22,29.95,10.0,South,3.5,-,N/A,,Clear,190,2014-02-27 23:35:00
5:55 PM,50.0,14.0,24,29.94,10.0,South,3.5,-,N/A,,Clear,180,2014-02-27 23:55:00
6:15 PM,48.2,15.8,27,29.94,10.0,Calm,Calm,-,N/A,,Clear,0,2014-02-28 00:15:00
6:35 PM,48.2,15.8,27,29.94,10.0,SSE,3.5,-,N/A,,Clear,150,2014-02-28 00:35:00
6:55 PM,46.4,17.6,32,29.94,10.0,SSE,3.5,-,N/A,,Clear,160,2014-02-28 00:55:00
7:15 PM,46.4,15.8,29,29.94,10.0,SSE,3.5,-,N/A,,Clear,160,2014-02-28 01:15:00
7:35 PM,46.4,15.8,29,29.94,10.0,South,5.8,-,N/A,,Clear,170,2014-02-28 01:35:00
7:55 PM,46.4,14.0,27,29.94,10.0,Calm,Calm,-,N/A,,Clear,0,2014-02-28 01:55:00
8:15 PM,46.4,14.0,27,29.93,10.0,SSE,4.6,-,N/A,,Clear,150,2014-02-28 02:15:00
8:35 PM,46.4,14.0,27,29.93,10.0,SSE,3.5,-,N/A,,Clear,160,2014-02-28 02:35:00
8:55 PM,44.6,14.0,29,29.94,10.0,South,3.5,-,N/A,,Clear,170,2014-02-28 02:55:00
9:15 PM,44.6,14.0,29,29.94,10.0,Calm,Calm,-,N/A,,Clear,0,2014-02-28 03:15:00
9:35 PM,44.6,12.2,27,29.94,10.0,Calm,Calm,-,N/A,,Clear,0,2014-02-28 03:35:00
9:55 PM,42.8,14.0,31,29.94,10.0,Calm,Calm,-,N/A,,Clear,0,2014-02-28 03:55:00
10:15 PM,37.4,17.6,45,29.94,10.0,Calm,Calm,-,N/A,,Clear,0,2014-02-28 04:15:00
10:35 PM,35.6,19.4,52,29.94,10.0,Calm,Calm,-,N/A,,Clear,0,2014-02-28 04:35:00
10:55 PM,35.6,17.6,48,29.94,10.0,Calm,Calm,-,N/A,,Clear,0,2014-02-28 04:55:00
11:15 PM,35.6,15.8,44,29.94,10.0,SSE,4.6,-,N/A,,Clear,150,2014-02-28 05:15:00
11:35 PM,35.6,17.6,48,29.93,10.0,Calm,Calm,-,N/A,,Clear,0,2014-02-28 05:35:00
11:55 PM,35.6,19.4,52,29.93,10.0,Calm,Calm,-,N/A,,Clear,0,2014-02-28 05:55:00